Change the Weather History Date:

Monday, February 23, 2015

  Actual Average Record
Temperature  
Mean Temperature -6 °F -  
Max Temperature 8 °F 34 °F 47 °F (1983)
Min Temperature -18 °F 14 °F -23 °F (1989)
Degree Days  
Heating Degree Days 71    
Moisture  
Dew Point -11 °F    
Average Humidity 77    
Maximum Humidity 92    
Minimum Humidity 37    
Precipitation  
Precipitation 0.00 in - - ()
Sea Level Pressure  
Sea Level Pressure 30.36 in    
Wind  
Wind Speed 8 mph (WSW)    
Max Wind Speed 13 mph    
Max Gust Speed 20 mph    
Visibility 9 miles    
Events      
Averages and records for this station are not official NWS values.
T = Trace of Precipitation, MM = Missing Value Source: NWS Daily Summary

Daily Weather History Graph

Daily Weather History Graph

Search for Another Location

Airport or City:

Trip Planner

Search our weather history database for the weather conditions in past years. The results will help you decide how hot, cold, wet, or windy it might be!

Date:

Astronomy

Feb. 23, 2015 Rise Set
Actual Time 7:28 AM EST 6:15 PM EST
Civil Twilight 6:57 AM EST 6:45 PM EST
Nautical Twilight 6:22 AM EST 7:20 PM EST
Astronomical Twilight 5:48 AM EST 7:55 PM EST
Moon 10:01 AM EST (2/23) No Moon Set
Length of Visible Light 11h 47m
Length of Day
10h 47m
Waxing Crescent, 29% of the Moon is Illuminated
Feb 23
Waxing Crescent
Feb 25
First Quarter
Mar 5
Full
Mar 13
Last Quarter
Mar 20
New

Hourly Weather History & Observations

Time (EST) Temp. Windchill Dew Point Humidity Pressure Visibility Wind Dir Wind Speed Gust Speed Precip Events Conditions
12:15 AM -16.6 °F -31.3 °F -18.4 °F 92% 30.50 in 9.0 mi WSW 5.8 mph - N/A   Clear
12:35 AM -16.6 °F -32.9 °F -18.4 °F 92% 30.50 in 10.0 mi WSW 6.9 mph - N/A   Clear
12:55 AM -14.8 °F -30.8 °F -18.4 °F 84% 30.50 in 10.0 mi WSW 6.9 mph - N/A   Partly Cloudy
1:15 AM -14.8 °F -30.8 °F -18.4 °F 84% 30.50 in 10.0 mi WSW 6.9 mph - N/A   Partly Cloudy
1:35 AM -14.8 °F -30.8 °F -18.4 °F 84% 30.49 in 9.0 mi WSW 6.9 mph - N/A   Clear
1:55 AM -14.8 °F -32.2 °F -18.4 °F 84% 30.49 in 10.0 mi WSW 8.1 mph - N/A   Clear
2:15 AM -14.8 °F -32.2 °F -18.4 °F 84% 30.49 in 10.0 mi WSW 8.1 mph - N/A   Clear
2:35 AM -14.8 °F -32.2 °F -18.4 °F 84% 30.49 in 10.0 mi West 8.1 mph - N/A   Clear
2:55 AM -14.8 °F -33.5 °F -18.4 °F 84% 30.50 in 10.0 mi West 9.2 mph - N/A   Partly Cloudy
3:15 AM -14.8 °F -32.2 °F -18.4 °F 84% 30.50 in 8.0 mi West 8.1 mph - N/A   Partly Cloudy
3:35 AM -16.6 °F -34.4 °F -18.4 °F 92% 30.51 in 5.0 mi West 8.1 mph - N/A   Clear
3:55 AM -16.6 °F -35.7 °F -18.4 °F 92% 30.51 in 10.0 mi West 9.2 mph - N/A   Clear
4:15 AM -16.6 °F -32.9 °F -20.2 °F 84% 30.51 in 10.0 mi West 6.9 mph - N/A   Clear
4:35 AM -16.6 °F -31.3 °F -20.2 °F 84% 30.51 in 10.0 mi West 5.8 mph - N/A   Clear
4:55 AM -18.4 °F -35.1 °F -20.2 °F 91% 30.52 in 10.0 mi West 6.9 mph - N/A   Clear
5:15 AM -18.4 °F -35.1 °F -20.2 °F 91% 30.52 in 10.0 mi West 6.9 mph - N/A   Clear
5:35 AM -16.6 °F -31.3 °F -20.2 °F 84% 30.52 in 10.0 mi WSW 5.8 mph - N/A   Clear
5:55 AM -16.6 °F -31.3 °F -20.2 °F 84% 30.52 in 8.0 mi WSW 5.8 mph - N/A   Scattered Clouds
6:15 AM -18.4 °F -35.1 °F -22.0 °F 84% 30.52 in 10.0 mi WSW 6.9 mph - N/A   Partly Cloudy
6:35 AM -18.4 °F -33.4 °F -22.0 °F 84% 30.52 in 10.0 mi WSW 5.8 mph - N/A   Clear
6:55 AM -18.4 °F -33.4 °F -22.0 °F 84% 30.52 in 10.0 mi WSW 5.8 mph - N/A   Clear
7:15 AM -18.4 °F -33.4 °F -20.2 °F 91% 30.52 in 10.0 mi WSW 5.8 mph - N/A   Clear
7:35 AM -18.4 °F -33.4 °F -20.2 °F 91% 30.51 in 10.0 mi WSW 5.8 mph - N/A   Clear
7:55 AM -18.4 °F -33.4 °F -20.2 °F 91% 30.51 in 10.0 mi WSW 5.8 mph - N/A   Clear
8:15 AM -16.6 °F -31.3 °F -20.2 °F 84% 30.51 in 10.0 mi WSW 5.8 mph - N/A   Clear
8:35 AM -16.6 °F -32.9 °F -20.2 °F 84% 30.51 in 10.0 mi WSW 6.9 mph - N/A   Clear
8:55 AM -14.8 °F -30.8 °F -18.4 °F 84% 30.51 in 10.0 mi West 6.9 mph - N/A   Clear
9:15 AM -11.2 °F -24.8 °F -16.6 °F 77% 30.50 in 10.0 mi WSW 5.8 mph - N/A   Clear
9:35 AM -9.4 °F -27.9 °F -13.0 °F 84% 30.50 in 10.0 mi West 10.4 mph - N/A   Clear
9:55 AM -7.6 °F -23.4 °F -11.2 °F 84% 30.49 in 10.0 mi WSW 8.1 mph - N/A   Clear
10:15 AM -4.0 °F -22.1 °F -9.4 °F 78% 30.49 in 10.0 mi WSW 11.5 mph - N/A   Clear
10:35 AM -2.2 °F -18.0 °F -7.6 °F 78% 30.49 in 10.0 mi West 9.2 mph - N/A   Clear
10:55 AM -0.4 °F -16.7 °F -7.6 °F 72% 30.48 in 10.0 mi West 10.4 mph 17.3 mph N/A   Clear
11:15 AM -0.4 °F -18.4 °F -9.4 °F 66% 30.48 in 10.0 mi West 12.7 mph 16.1 mph N/A   Partly Cloudy
11:35 AM 1.4 °F -16.1 °F -9.4 °F 61% 30.48 in 10.0 mi WSW 12.7 mph 19.6 mph N/A   Mostly Cloudy
11:55 AM 1.4 °F -14.5 °F -9.4 °F 61% 30.47 in 9.0 mi West 10.4 mph - N/A   Scattered Clouds
12:15 PM 3.2 °F -9.1 °F -9.4 °F 56% 30.46 in 10.0 mi WSW 6.9 mph - N/A   Scattered Clouds
12:35 PM 3.2 °F -11.3 °F -11.2 °F 51% 30.45 in 10.0 mi SW 9.2 mph - N/A   Partly Cloudy
12:55 PM 3.2 °F -12.2 °F -11.2 °F 51% 30.43 in 10.0 mi WSW 10.4 mph 16.1 mph N/A   Clear
1:15 PM 5.0 °F -6.9 °F -11.2 °F 47% 30.42 in 10.0 mi West 6.9 mph 18.4 mph N/A   Clear
1:35 PM 6.8 °F -9.3 °F -13.0 °F 40% 30.41 in 10.0 mi WSW 12.7 mph - N/A   Clear
1:55 PM 6.8 °F -6.9 °F -14.8 °F 37% 30.40 in 10.0 mi WSW 9.2 mph - N/A   Clear
2:15 PM 5.0 °F -6.9 °F -13.0 °F 43% 30.38 in 10.0 mi WSW 6.9 mph 16.1 mph N/A   Clear
2:35 PM 5.0 °F -10.0 °F -11.2 °F 47% 30.37 in 10.0 mi WSW 10.4 mph 18.4 mph N/A   Clear
2:55 PM 5.0 °F -10.8 °F -11.2 °F 47% 30.35 in 10.0 mi West 11.5 mph 17.3 mph N/A   Clear
3:15 PM 5.0 °F -10.0 °F -9.4 °F 52% 30.34 in 10.0 mi WSW 10.4 mph 18.4 mph N/A   Clear
3:35 PM 5.0 °F -10.0 °F -9.4 °F 52% 30.33 in 10.0 mi SW 10.4 mph 17.3 mph N/A   Clear
3:55 PM 3.2 °F -10.3 °F -9.4 °F 56% 30.32 in 10.0 mi SW 8.1 mph 17.3 mph N/A   Clear
4:15 PM 3.2 °F -12.2 °F -7.6 °F 61% 30.31 in 0.8 mi SSW 10.4 mph 19.6 mph N/A   Scattered Clouds
4:35 PM 3.2 °F -9.1 °F -7.6 °F 61% 30.30 in 10.0 mi WSW 6.9 mph 18.4 mph N/A   Clear
4:55 PM 3.2 °F -10.3 °F -5.8 °F 66% 30.28 in 10.0 mi SW 8.1 mph - N/A   Clear
5:15 PM 3.2 °F -11.3 °F -5.8 °F 66% 30.26 in 10.0 mi SW 9.2 mph 17.3 mph N/A   Clear
5:35 PM 3.2 °F -11.3 °F -5.8 °F 66% 30.26 in 10.0 mi SW 9.2 mph - N/A   Clear
5:55 PM 1.4 °F -12.5 °F -4.0 °F 78% 30.24 in 10.0 mi SW 8.1 mph - N/A   Clear
6:15 PM 1.4 °F -9.9 °F -4.0 °F 78% 30.23 in 10.0 mi SW 5.8 mph - N/A   Scattered Clouds
6:35 PM 1.4 °F -9.9 °F -2.2 °F 85% 30.20 in 10.0 mi SSW 5.8 mph - N/A   Overcast
6:55 PM 1.4 °F -6.2 °F -2.2 °F 85% 30.19 in 10.0 mi SSW 3.5 mph - N/A   Overcast
7:15 PM 1.4 °F -8.3 °F -2.2 °F 85% 30.17 in 9.0 mi SSW 4.6 mph - N/A   Overcast
7:35 PM 1.4 °F -9.9 °F -0.4 °F 92% 30.15 in 7.0 mi South 5.8 mph - N/A   Overcast
7:55 PM 1.4 °F -9.9 °F -0.4 °F 92% 30.14 in 10.0 mi South 5.8 mph - N/A   Overcast
8:15 PM 3.2 °F -6.2 °F 1.4 °F 92% 30.12 in 5.0 mi SSW 4.6 mph - N/A   Overcast
8:35 PM 5.0 °F -5.6 °F 3.2 °F 92% 30.10 in 5.0 mi South 5.8 mph - N/A   Overcast
8:55 PM 6.8 °F -6.9 °F 3.2 °F 85% 30.08 in 5.0 mi SSW 9.2 mph 17.3 mph N/A   Overcast
9:15 PM 6.8 °F -7.8 °F 3.2 °F 85% 30.06 in 5.0 mi SSW 10.4 mph 18.4 mph N/A   Overcast
9:35 PM 6.8 °F -7.8 °F 3.2 °F 85% 30.05 in 5.0 mi SW 10.4 mph 17.3 mph N/A   Overcast
9:55 PM 6.8 °F -8.6 °F 3.2 °F 85% 30.04 in 5.0 mi SSW 11.5 mph 16.1 mph N/A   Overcast
10:15 PM 6.8 °F -5.9 °F 5.0 °F 92% 30.02 in 4.0 mi SSW 8.1 mph - N/A   Overcast
10:35 PM 6.8 °F -7.8 °F 5.0 °F 92% 30.00 in 4.0 mi SSW 10.4 mph 16.1 mph N/A   Overcast
10:55 PM 6.8 °F -7.8 °F 5.0 °F 92% 29.98 in 5.0 mi SSW 10.4 mph - N/A   Mostly Cloudy
11:15 PM 6.8 °F -8.6 °F 3.2 °F 85% 29.96 in 8.0 mi SSW 11.5 mph 17.3 mph N/A   Mostly Cloudy
11:35 PM 6.8 °F -5.9 °F 5.0 °F 92% 29.94 in 10.0 mi SSW 8.1 mph 16.1 mph N/A   Overcast
11:55 PM 6.8 °F -6.9 °F 5.0 °F 92% 29.92 in 10.0 mi SSW 9.2 mph - N/A   Scattered Clouds